CSZ9343 ZSOF-ZYCC

Flight info

Callsign CSZ9343
Flight time 2h 22m
Altitude 37100
Route MAD04D MADUK W73 NOBEM W95 OF W178 RUXEL DCT URBAD W172 IGDEG W173 NIXEP W8 DOBGA W202 UDETI A588 LEMOT LEM93A
Aircraft A320/M-SDE3FGHIRWY/LB1

Departure

Time 2026-04-22 11:05
Airport Hefei Xinqiao International Airport (ZSOF)

Arrival

Time 2026-04-22 13:28
Airport Changchun Longjia International Airport (ZYCC)
Time Latitude Longitude Altitude Speed Heading
2026-04-22 09:46 31.98867 116.96193 218 ft 0 kts 121°
2026-04-22 10:27 31.98867 116.96192 218 ft 0 kts 121°
2026-04-22 10:47 31.98872 116.96184 220 ft 2 kts 122°
2026-04-22 10:47 31.98879 116.96170 218 ft 2 kts 122°
2026-04-22 10:47 31.98888 116.96153 220 ft 2 kts 121°
2026-04-22 10:48 31.98896 116.96136 219 ft 2 kts 120°
2026-04-22 10:48 31.98905 116.96120 219 ft 2 kts 101°
2026-04-22 10:48 31.98905 116.96100 218 ft 2 kts 57°
2026-04-22 10:48 31.98894 116.96086 225 ft 2 kts 33°
2026-04-22 10:49 31.98884 116.96079 228 ft 1 kts 28°
2026-04-22 10:49 31.98884 116.96078 227 ft 0 kts 28°
2026-04-22 10:52 31.98883 116.96078 227 ft 0 kts 28°
2026-04-22 10:53 31.98886 116.96080 218 ft 1 kts 29°
2026-04-22 10:54 31.98896 116.96087 223 ft 3 kts 30°
2026-04-22 10:54 31.98916 116.96101 219 ft 4 kts 31°
2026-04-22 10:54 31.98943 116.96121 220 ft 5 kts 33°
2026-04-22 10:54 31.98978 116.96150 219 ft 7 kts 36°
2026-04-22 10:55 31.99019 116.96187 220 ft 8 kts 37°
2026-04-22 10:55 31.99065 116.96235 220 ft 9 kts 45°
2026-04-22 10:55 31.99106 116.96302 221 ft 11 kts 62°
2026-04-22 10:55 31.99130 116.96390 222 ft 12 kts 78°
2026-04-22 10:56 31.99142 116.96492 218 ft 13 kts 86°
2026-04-22 10:56 31.99146 116.96603 221 ft 14 kts 88°
2026-04-22 10:56 31.99142 116.96724 226 ft 15 kts 96°
2026-04-22 10:56 31.99130 116.96852 218 ft 16 kts 92°
2026-04-22 10:57 31.99142 116.96978 226 ft 15 kts 79°
2026-04-22 10:57 31.99153 116.97090 217 ft 13 kts 91°
2026-04-22 10:57 31.99133 116.97187 219 ft 12 kts 114°
2026-04-22 10:57 31.99085 116.97259 219 ft 11 kts 146°
2026-04-22 10:58 31.99020 116.97303 222 ft 11 kts 150°
2026-04-22 10:58 31.98958 116.97345 224 ft 10 kts 150°
2026-04-22 10:58 31.98892 116.97390 218 ft 11 kts 150°
2026-04-22 10:58 31.98819 116.97439 222 ft 13 kts 150°
2026-04-22 10:59 31.98738 116.97494 221 ft 14 kts 150°
2026-04-22 10:59 31.98650 116.97554 222 ft 15 kts 150°
2026-04-22 10:59 31.98555 116.97617 220 ft 16 kts 150°
2026-04-22 10:59 31.98454 116.97686 221 ft 17 kts 150°
2026-04-22 11:00 31.98347 116.97758 221 ft 18 kts 150°
2026-04-22 11:00 31.98241 116.97830 218 ft 17 kts 150°
2026-04-22 11:00 31.98140 116.97899 224 ft 16 kts 150°
2026-04-22 11:00 31.98044 116.97963 218 ft 15 kts 150°
2026-04-22 11:01 31.97953 116.98026 226 ft 15 kts 150°
2026-04-22 11:01 31.97865 116.98084 222 ft 14 kts 150°
2026-04-22 11:01 31.97782 116.98141 218 ft 13 kts 150°
2026-04-22 11:01 31.97702 116.98195 220 ft 13 kts 150°
2026-04-22 11:02 31.97626 116.98247 217 ft 12 kts 150°
2026-04-22 11:02 31.97554 116.98296 224 ft 12 kts 150°
2026-04-22 11:02 31.97486 116.98342 222 ft 11 kts 150°
2026-04-22 11:02 31.97457 116.98409 217 ft 10 kts 72°
2026-04-22 11:03 31.97490 116.98473 223 ft 9 kts 58°
2026-04-22 11:03 31.97526 116.98526 218 ft 8 kts 26°
2026-04-22 11:03 31.97575 116.98513 217 ft 7 kts 330°
2026-04-22 11:03 31.97580 116.98510 224 ft 0 kts 329°
2026-04-22 11:04 31.97594 116.98500 220 ft 17 kts 329°
2026-04-22 11:04 31.97899 116.98292 221 ft 82 kts 330°
2026-04-22 11:04 31.98539 116.97860 216 ft 130 kts 330°
2026-04-22 11:05 31.99435 116.97246 332 ft 159 kts 328°
2026-04-22 11:05 32.00381 116.96586 957 ft 158 kts 332°
2026-04-22 11:05 32.01338 116.95922 1486 ft 162 kts 335°
2026-04-22 11:05 32.02324 116.95260 1958 ft 165 kts 335°
2026-04-22 11:06 32.03324 116.94589 2389 ft 167 kts 334°
2026-04-22 11:06 32.04339 116.93907 2794 ft 169 kts 333°
2026-04-22 11:06 32.05364 116.93215 3256 ft 171 kts 331°
2026-04-22 11:06 32.06425 116.92498 3560 ft 186 kts 330°
2026-04-22 11:07 32.07612 116.91694 3788 ft 208 kts 330°
2026-04-22 11:07 32.09048 116.91143 4002 ft 230 kts
2026-04-22 11:07 32.10506 116.91842 4667 ft 231 kts 45°
2026-04-22 11:07 32.11495 116.93327 5415 ft 232 kts 60°
2026-04-22 11:08 32.12269 116.95023 6172 ft 236 kts 64°
2026-04-22 11:08 32.12980 116.96790 6857 ft 241 kts 71°
2026-04-22 11:08 32.13100 116.98743 7488 ft 243 kts 106°
2026-04-22 11:08 32.12322 117.00514 7972 ft 253 kts 138°
2026-04-22 11:09 32.10824 117.01735 8294 ft 274 kts 152°
2026-04-22 11:09 32.09128 117.02875 8845 ft 286 kts 153°
2026-04-22 11:09 32.07376 117.04034 9603 ft 290 kts 153°
2026-04-22 11:09 32.05600 117.05213 10218 ft 301 kts 153°
2026-04-22 11:10 32.03709 117.06476 10426 ft 324 kts 153°
2026-04-22 11:10 32.01678 117.07837 10572 ft 347 kts 152°
2026-04-22 11:10 31.99543 117.09277 11011 ft 358 kts 152°
2026-04-22 11:10 31.97363 117.10749 11616 ft 364 kts 153°
2026-04-22 11:11 31.95155 117.12241 12246 ft 368 kts 153°
2026-04-22 11:11 31.92921 117.13756 12873 ft 373 kts 153°
2026-04-22 11:11 31.90657 117.15289 13484 ft 378 kts 153°
2026-04-22 11:11 31.88365 117.16838 14032 ft 382 kts 153°
2026-04-22 11:12 31.86058 117.18421 14575 ft 387 kts 150°
2026-04-22 11:12 31.83935 117.20337 15104 ft 394 kts 140°
2026-04-22 11:12 31.82072 117.22735 15638 ft 401 kts 130°
2026-04-22 11:12 31.80429 117.25410 16176 ft 405 kts 129°
2026-04-22 11:13 31.78776 117.28109 16702 ft 409 kts 129°
2026-04-22 11:13 31.77100 117.30833 17236 ft 413 kts 129°
2026-04-22 11:13 31.75407 117.33592 17766 ft 418 kts 129°
2026-04-22 11:13 31.73707 117.36378 18296 ft 422 kts 129°
2026-04-22 11:14 31.71992 117.39196 18759 ft 426 kts 129°
2026-04-22 11:14 31.70262 117.42041 19254 ft 429 kts 129°
2026-04-22 11:14 31.68522 117.44905 19750 ft 433 kts 129°
2026-04-22 11:14 31.66763 117.47792 20249 ft 436 kts 130°
2026-04-22 11:15 31.64998 117.50698 20736 ft 440 kts 128°
2026-04-22 11:15 31.63510 117.53865 21200 ft 448 kts 116°
2026-04-22 11:15 31.62541 117.57374 21647 ft 456 kts 104°
2026-04-22 11:15 31.62166 117.61087 22084 ft 463 kts 92°
2026-04-22 11:16 31.62414 117.64867 22509 ft 468 kts 80°
2026-04-22 11:16 31.63155 117.68597 22931 ft 471 kts 77°
2026-04-22 11:16 31.63941 117.72337 23352 ft 473 kts 77°
2026-04-22 11:16 31.64727 117.76099 23705 ft 476 kts 77°
2026-04-22 11:17 31.65513 117.79880 24028 ft 479 kts 77°
2026-04-22 11:17 31.66301 117.83688 24356 ft 481 kts 77°
2026-04-22 11:17 31.67089 117.87513 24677 ft 484 kts 77°
2026-04-22 11:17 31.67881 117.91358 24989 ft 486 kts 77°
2026-04-22 11:18 31.68679 117.95228 25296 ft 489 kts 77°
2026-04-22 11:18 31.69482 117.99126 25601 ft 492 kts 77°
2026-04-22 11:18 31.70284 118.03034 25905 ft 494 kts 77°
2026-04-22 11:18 31.71091 118.06967 26216 ft 497 kts 77°
2026-04-22 11:19 31.72058 118.10876 26512 ft 500 kts 69°
2026-04-22 11:19 31.73440 118.14627 26816 ft 502 kts 64°
2026-04-22 11:19 31.74911 118.18354 27123 ft 504 kts 64°
2026-04-22 11:19 31.76385 118.22105 27425 ft 507 kts 64°
2026-04-22 11:20 31.77861 118.25875 27720 ft 509 kts 64°
2026-04-22 11:20 31.79341 118.29662 28134 ft 509 kts 64°
2026-04-22 11:20 31.80813 118.33444 28581 ft 509 kts 64°
2026-04-22 11:20 31.82275 118.37227 29028 ft 508 kts 64°
2026-04-22 11:21 31.83733 118.41016 29478 ft 508 kts 64°
2026-04-22 11:21 31.85187 118.44800 29944 ft 507 kts 64°
2026-04-22 11:21 31.86638 118.48578 30354 ft 507 kts 64°
2026-04-22 11:21 31.88086 118.52347 30768 ft 505 kts 64°
2026-04-22 11:22 31.89532 118.56107 31194 ft 504 kts 64°
2026-04-22 11:22 31.90977 118.59866 31598 ft 503 kts 64°
2026-04-22 11:22 31.92417 118.63620 32021 ft 502 kts 64°
2026-04-22 11:22 31.93853 118.67359 32444 ft 501 kts 63°
2026-04-22 11:23 31.95600 118.70875 32852 ft 495 kts 48°
2026-04-22 11:23 31.97963 118.73759 33247 ft 485 kts 33°
2026-04-22 11:23 32.00769 118.75872 33655 ft 473 kts 19°
2026-04-22 11:23 32.03828 118.77138 34050 ft 460 kts
2026-04-22 11:24 32.06954 118.77556 34392 ft 446 kts 352°
2026-04-22 11:24 32.09990 118.77181 34721 ft 433 kts 339°
2026-04-22 11:24 32.12871 118.76251 35056 ft 429 kts 336°
2026-04-22 11:24 32.15696 118.75295 35374 ft 428 kts 336°
2026-04-22 11:25 32.18554 118.74330 35698 ft 427 kts 336°
2026-04-22 11:25 32.21411 118.73369 36014 ft 426 kts 336°
2026-04-22 11:25 32.24263 118.72413 36334 ft 426 kts 336°
2026-04-22 11:25 32.27110 118.71460 36635 ft 425 kts 336°
2026-04-22 11:26 32.29949 118.70511 36934 ft 424 kts 336°
2026-04-22 11:26 32.35660 118.68584 37040 ft 431 kts 336°
2026-04-22 11:27 32.41459 118.66612 37046 ft 435 kts 336°
2026-04-22 11:27 32.47285 118.64636 37048 ft 436 kts 336°
2026-04-22 11:28 32.53119 118.62665 37054 ft 436 kts 336°
2026-04-22 11:28 32.58955 118.60687 37057 ft 436 kts 336°
2026-04-22 11:29 32.64799 118.58737 37069 ft 440 kts 340°
2026-04-22 11:29 32.71030 118.58394 37075 ft 461 kts
2026-04-22 11:30 32.77396 118.59420 37081 ft 462 kts
2026-04-22 11:30 32.83772 118.60452 37082 ft 463 kts
2026-04-22 11:31 32.90153 118.61480 37092 ft 463 kts
2026-04-22 11:31 32.95456 118.62334 37096 ft 463 kts
2026-04-22 11:32 33.01840 118.63356 37106 ft 463 kts
2026-04-22 11:32 33.09251 118.64542 37104 ft 462 kts
2026-04-22 11:33 33.14590 118.65401 37111 ft 462 kts
2026-04-22 11:33 33.22002 118.66613 37112 ft 462 kts
2026-04-22 11:34 33.28378 118.67641 37119 ft 462 kts
2026-04-22 11:34 33.33719 118.68482 37117 ft 462 kts
2026-04-22 11:35 33.40082 118.69481 37123 ft 463 kts
2026-04-22 11:35 33.46465 118.70502 37121 ft 463 kts
2026-04-22 11:36 33.53880 118.71696 37127 ft 463 kts
2026-04-22 11:36 33.59233 118.72551 37127 ft 463 kts
2026-04-22 11:37 33.65620 118.73565 37133 ft 463 kts
2026-04-22 11:37 33.71912 118.74571 37132 ft 463 kts
2026-04-22 11:38 33.78229 118.75588 37135 ft 463 kts
2026-04-22 11:38 33.87815 118.77128 37133 ft 463 kts
2026-04-22 11:39 33.94162 118.78125 37136 ft 463 kts
2026-04-22 11:39 34.00549 118.79137 37135 ft 463 kts
2026-04-22 11:40 34.06945 118.80181 37144 ft 465 kts
2026-04-22 11:40 34.13168 118.82674 37146 ft 482 kts 22°
2026-04-22 11:41 34.18850 118.87129 37145 ft 488 kts 28°
2026-04-22 11:41 34.24484 118.91709 37145 ft 488 kts 28°
2026-04-22 11:42 34.30122 118.96287 37144 ft 488 kts 28°
2026-04-22 11:42 34.35762 119.00873 37150 ft 488 kts 28°
2026-04-22 11:43 34.41399 119.05464 37147 ft 489 kts 28°
2026-04-22 11:43 34.47038 119.10064 37145 ft 489 kts 28°
2026-04-22 11:44 34.52674 119.14671 37157 ft 489 kts 28°
2026-04-22 11:44 34.58307 119.19291 37150 ft 489 kts 28°
2026-04-22 11:45 34.63943 119.23919 37152 ft 489 kts 28°
2026-04-22 11:45 34.69583 119.28566 37152 ft 490 kts 28°
2026-04-22 11:46 34.75221 119.33222 37157 ft 490 kts 28°
2026-04-22 11:46 34.80865 119.37878 37158 ft 490 kts 28°
2026-04-22 11:47 34.86475 119.42512 37163 ft 491 kts 28°
2026-04-22 11:47 34.92112 119.47181 37119 ft 489 kts 28°
2026-04-22 11:48 34.97730 119.51844 37126 ft 489 kts 28°
2026-04-22 11:48 35.03370 119.56518 37132 ft 490 kts 28°
2026-04-22 11:49 35.09017 119.61209 37145 ft 491 kts 28°
2026-04-22 11:49 35.14667 119.65916 37153 ft 492 kts 28°
2026-04-22 11:50 35.20323 119.70632 37161 ft 492 kts 28°
2026-04-22 11:50 35.25982 119.75364 37166 ft 493 kts 28°
2026-04-22 11:51 35.31640 119.80108 37168 ft 493 kts 28°
2026-04-22 11:51 35.37299 119.84855 37164 ft 493 kts 28°
2026-04-22 11:52 35.42959 119.89618 37165 ft 494 kts 28°
2026-04-22 11:52 35.48627 119.94396 37169 ft 494 kts 28°
2026-04-22 11:53 35.54253 119.99143 37169 ft 494 kts 28°
2026-04-22 11:53 35.59923 120.03931 37168 ft 495 kts 28°
2026-04-22 11:54 35.65597 120.08727 37168 ft 495 kts 28°
2026-04-22 11:54 35.71267 120.13538 37168 ft 495 kts 28°
2026-04-22 11:55 35.76938 120.18360 37171 ft 496 kts 28°
2026-04-22 11:55 35.82619 120.23187 37172 ft 496 kts 28°
2026-04-22 11:56 35.88301 120.28041 37171 ft 497 kts 28°
2026-04-22 11:56 35.93992 120.32897 37168 ft 498 kts 28°
2026-04-22 11:57 35.99694 120.37761 37171 ft 499 kts 28°
2026-04-22 11:57 36.05401 120.42647 37171 ft 499 kts 28°
2026-04-22 11:58 36.11399 120.46699 37173 ft 484 kts 11°
2026-04-22 11:58 36.14553 120.47839 37175 ft 473 kts
2026-04-22 11:58 36.17770 120.48404 37173 ft 463 kts 354°
2026-04-22 11:59 36.24181 120.48749 37161 ft 462 kts 353°
2026-04-22 11:59 36.30612 120.49112 37172 ft 463 kts 353°
2026-04-22 12:00 36.37061 120.49644 37174 ft 472 kts
2026-04-22 12:00 36.40290 120.50619 37172 ft 484 kts 10°
2026-04-22 12:00 36.43461 120.52081 37174 ft 487 kts 12°
2026-04-22 12:01 36.49812 120.55049 37175 ft 487 kts 11°
2026-04-22 12:01 36.53031 120.56183 37176 ft 475 kts
2026-04-22 12:01 36.56271 120.56795 37179 ft 470 kts 358°
2026-04-22 12:02 36.62755 120.57897 37178 ft 471 kts 358°
2026-04-22 12:02 36.69245 120.59029 37182 ft 471 kts 358°
2026-04-22 12:03 36.75695 120.60156 37183 ft 471 kts 358°
2026-04-22 12:03 36.82189 120.61281 37184 ft 471 kts 357°
2026-04-22 12:04 36.88685 120.62403 37184 ft 471 kts 357°
2026-04-22 12:04 36.95180 120.63547 37187 ft 472 kts 358°
2026-04-22 12:05 37.01681 120.64754 37195 ft 472 kts 358°
2026-04-22 12:05 37.08182 120.65987 37190 ft 472 kts 358°
2026-04-22 12:06 37.14676 120.67211 37188 ft 472 kts 357°
2026-04-22 12:06 37.21177 120.68418 37161 ft 472 kts 357°
2026-04-22 12:07 37.27680 120.69630 37176 ft 472 kts 357°
2026-04-22 12:07 37.34179 120.70857 37180 ft 473 kts 357°
2026-04-22 12:08 37.40682 120.72090 37183 ft 473 kts 357°
2026-04-22 12:08 37.47191 120.73319 37185 ft 473 kts 357°
2026-04-22 12:09 37.53694 120.74545 37187 ft 472 kts 357°
2026-04-22 12:09 37.60155 120.75738 37185 ft 471 kts 356°
2026-04-22 12:10 37.66641 120.76600 37190 ft 467 kts 353°
2026-04-22 12:10 37.73104 120.77247 37196 ft 466 kts 352°
2026-04-22 12:11 37.79568 120.77938 37195 ft 467 kts 353°
2026-04-22 12:11 37.86047 120.78717 37192 ft 467 kts 354°
2026-04-22 12:12 37.92516 120.79522 37192 ft 467 kts 353°
2026-04-22 12:12 37.98994 120.80560 37187 ft 480 kts
2026-04-22 12:13 38.02215 120.81905 37187 ft 495 kts 13°
2026-04-22 12:13 38.05302 120.83967 37190 ft 506 kts 21°
2026-04-22 12:13 38.11365 120.88536 37189 ft 507 kts 21°
2026-04-22 12:14 38.17431 120.93118 37187 ft 507 kts 21°
2026-04-22 12:14 38.23186 120.98480 37184 ft 526 kts 38°
2026-04-22 12:15 38.25554 121.02001 37171 ft 535 kts 49°
2026-04-22 12:15 38.27523 121.06121 37170 ft 542 kts 60°
2026-04-22 12:15 38.30583 121.14843 37160 ft 544 kts 63°
2026-04-22 12:16 38.33641 121.23654 37154 ft 544 kts 63°
2026-04-22 12:16 38.36701 121.32481 37156 ft 545 kts 63°
2026-04-22 12:17 38.39758 121.41332 37154 ft 546 kts 63°
2026-04-22 12:17 38.42871 121.50155 37155 ft 545 kts 60°
2026-04-22 12:18 38.46309 121.58766 37156 ft 544 kts 58°
2026-04-22 12:18 38.49871 121.67280 37154 ft 544 kts 58°
2026-04-22 12:19 38.53367 121.75852 37154 ft 544 kts 59°
2026-04-22 12:19 38.56771 121.84485 37152 ft 544 kts 59°
2026-04-22 12:20 38.60158 121.93131 37158 ft 544 kts 59°
2026-04-22 12:20 38.63544 122.01722 37160 ft 544 kts 59°
2026-04-22 12:21 38.67086 122.10256 37163 ft 539 kts 51°
2026-04-22 12:21 38.71862 122.17444 37160 ft 522 kts 33°
2026-04-22 12:22 38.74684 122.20291 37151 ft 511 kts 24°
2026-04-22 12:22 38.77670 122.22689 37149 ft 507 kts 21°
2026-04-22 12:22 38.83689 122.27418 37147 ft 508 kts 21°
2026-04-22 12:23 38.89706 122.32187 37159 ft 509 kts 22°
2026-04-22 12:23 38.95724 122.36971 37153 ft 509 kts 22°
2026-04-22 12:24 39.01748 122.41764 37157 ft 509 kts 22°
2026-04-22 12:24 39.07766 122.46558 37153 ft 509 kts 22°
2026-04-22 12:25 39.13798 122.51354 37153 ft 509 kts 22°
2026-04-22 12:25 39.19818 122.56164 37157 ft 509 kts 22°
2026-04-22 12:26 39.25829 122.60990 37160 ft 509 kts 22°
2026-04-22 12:26 39.30864 122.64868 37151 ft 505 kts 20°
2026-04-22 12:27 39.38012 122.69863 37149 ft 502 kts 18°
2026-04-22 12:27 39.44181 122.74113 37146 ft 503 kts 19°
2026-04-22 12:28 39.50315 122.78475 37152 ft 504 kts 19°
2026-04-22 12:28 39.55399 122.82155 37156 ft 504 kts 19°
2026-04-22 12:29 39.61518 122.86573 37159 ft 503 kts 19°
2026-04-22 12:29 39.67643 122.90979 37154 ft 503 kts 19°
2026-04-22 12:30 39.76812 122.97592 37157 ft 502 kts 19°
2026-04-22 12:31 39.82921 123.02004 37156 ft 502 kts 19°
2026-04-22 12:31 39.89023 123.06425 37158 ft 502 kts 19°
2026-04-22 12:32 39.96107 123.11582 37160 ft 502 kts 19°
2026-04-22 12:32 40.04259 123.17519 37159 ft 501 kts 19°
2026-04-22 12:33 40.10314 123.21897 37165 ft 501 kts 19°
2026-04-22 12:33 40.16416 123.26280 37161 ft 500 kts 19°
2026-04-22 12:34 40.22519 123.30670 37161 ft 501 kts 19°
2026-04-22 12:34 40.28617 123.35084 37161 ft 501 kts 19°
2026-04-22 12:35 40.34709 123.39512 37165 ft 501 kts 19°
2026-04-22 12:35 40.40802 123.43940 37173 ft 501 kts 19°
2026-04-22 12:36 40.46893 123.48370 37168 ft 501 kts 19°
2026-04-22 12:36 40.52986 123.52813 37173 ft 501 kts 19°
2026-04-22 12:37 40.59072 123.57272 37170 ft 501 kts 19°
2026-04-22 12:37 40.65160 123.61725 37178 ft 501 kts 19°
2026-04-22 12:38 40.71213 123.66156 37179 ft 501 kts 19°
2026-04-22 12:38 40.77301 123.70632 37187 ft 501 kts 19°
2026-04-22 12:39 40.86427 123.77327 37186 ft 500 kts 19°
2026-04-22 12:40 40.92537 123.81687 37184 ft 499 kts 18°
2026-04-22 12:40 40.98651 123.86017 37184 ft 499 kts 18°
2026-04-22 12:41 41.04763 123.90377 37190 ft 499 kts 18°
2026-04-22 12:41 41.10860 123.94769 37199 ft 499 kts 19°
2026-04-22 12:42 41.16944 123.99172 37200 ft 498 kts 19°
2026-04-22 12:42 41.23025 124.03555 37196 ft 497 kts 18°
2026-04-22 12:43 41.29103 124.07929 37195 ft 497 kts 18°
2026-04-22 12:43 41.35174 124.12322 37196 ft 497 kts 19°
2026-04-22 12:44 41.41235 124.16726 37202 ft 496 kts 19°
2026-04-22 12:44 41.47270 124.21218 37207 ft 497 kts 20°
2026-04-22 12:45 41.53237 124.25759 37203 ft 497 kts 20°
2026-04-22 12:45 41.59238 124.30316 37198 ft 496 kts 20°
2026-04-22 12:46 41.65244 124.34854 37198 ft 495 kts 20°
2026-04-22 12:46 41.71241 124.39381 37198 ft 495 kts 20°
2026-04-22 12:47 41.77224 124.43918 37204 ft 494 kts 20°
2026-04-22 12:47 41.83197 124.48466 37205 ft 493 kts 20°
2026-04-22 12:48 41.89164 124.53016 37198 ft 493 kts 20°
2026-04-22 12:48 41.95117 124.57565 37200 ft 492 kts 21°
2026-04-22 12:49 42.01076 124.62045 37201 ft 489 kts 19°
2026-04-22 12:49 42.07114 124.66172 37203 ft 486 kts 17°
2026-04-22 12:50 42.13176 124.70190 37204 ft 485 kts 17°
2026-04-22 12:50 42.19167 124.74253 37205 ft 485 kts 18°
2026-04-22 12:51 42.25180 124.78412 37205 ft 485 kts 18°
2026-04-22 12:51 42.31183 124.82570 37204 ft 484 kts 18°
2026-04-22 12:52 42.37171 124.86715 37203 ft 483 kts 18°
2026-04-22 12:52 42.43159 124.90854 37205 ft 483 kts 18°
2026-04-22 12:53 42.49124 124.95007 37206 ft 482 kts 18°
2026-04-22 12:53 42.55080 124.99159 37206 ft 481 kts 18°
2026-04-22 12:54 42.61032 125.03305 37206 ft 480 kts 18°
2026-04-22 12:54 42.66967 125.07452 37198 ft 480 kts 18°
2026-04-22 12:55 42.72898 125.11614 37195 ft 479 kts 18°
2026-04-22 12:55 42.78808 125.15829 37196 ft 483 kts 22°
2026-04-22 12:55 42.81579 125.18512 37191 ft 495 kts 33°
2026-04-22 12:56 42.84035 125.21858 37192 ft 504 kts 44°
2026-04-22 12:56 42.86255 125.26081 37192 ft 510 kts 51°
2026-04-22 13:04 42.89846 125.33105 36810 ft 501 kts 41°
2026-04-22 13:04 42.92313 125.36376 36214 ft 490 kts 31°
2026-04-22 13:04 42.95040 125.39070 35636 ft 479 kts 23°
2026-04-22 13:04 42.97934 125.41233 35023 ft 472 kts 18°
2026-04-22 13:05 43.00862 125.43258 34411 ft 472 kts 18°
2026-04-22 13:05 43.03776 125.45306 33745 ft 471 kts 18°
2026-04-22 13:05 43.06683 125.47370 33002 ft 470 kts 19°
2026-04-22 13:05 43.09581 125.49434 32240 ft 470 kts 19°
2026-04-22 13:06 43.12488 125.51497 31471 ft 469 kts 19°
2026-04-22 13:06 43.15385 125.53545 30697 ft 469 kts 18°
2026-04-22 13:06 43.18279 125.55582 29877 ft 468 kts 18°
2026-04-22 13:06 43.21176 125.57619 28924 ft 467 kts 19°
2026-04-22 13:07 43.24054 125.59646 28140 ft 463 kts 19°
2026-04-22 13:07 43.26896 125.61661 27484 ft 456 kts 19°
2026-04-22 13:07 43.29660 125.63626 26848 ft 450 kts 19°
2026-04-22 13:07 43.32422 125.65590 26200 ft 444 kts 20°
2026-04-22 13:08 43.35148 125.67532 25571 ft 439 kts 20°
2026-04-22 13:08 43.37845 125.69450 24975 ft 434 kts 20°
2026-04-22 13:08 43.40508 125.71339 24378 ft 428 kts 20°
2026-04-22 13:08 43.43142 125.73207 23794 ft 423 kts 20°
2026-04-22 13:09 43.45748 125.75056 23128 ft 419 kts 20°
2026-04-22 13:09 43.48319 125.76885 22459 ft 414 kts 20°
2026-04-22 13:09 43.50850 125.78695 21973 ft 407 kts 21°
2026-04-22 13:09 43.53351 125.80487 21333 ft 404 kts 21°
2026-04-22 13:10 43.55833 125.82267 20715 ft 401 kts 21°
2026-04-22 13:10 43.58301 125.84032 20121 ft 398 kts 21°
2026-04-22 13:10 43.60753 125.85783 19543 ft 395 kts 21°
2026-04-22 13:10 43.63186 125.87524 18965 ft 393 kts 21°
2026-04-22 13:11 43.65609 125.89260 18401 ft 391 kts 21°
2026-04-22 13:11 43.68019 125.90993 17778 ft 389 kts 21°
2026-04-22 13:11 43.70410 125.92720 17207 ft 385 kts 21°
2026-04-22 13:11 43.72775 125.94429 16605 ft 382 kts 21°
2026-04-22 13:12 43.75164 125.95942 16019 ft 373 kts 13°
2026-04-22 13:12 43.77643 125.96778 15421 ft 362 kts
2026-04-22 13:12 43.80093 125.96989 14814 ft 356 kts 357°
2026-04-22 13:12 43.82562 125.97099 14182 ft 353 kts 357°
2026-04-22 13:13 43.85010 125.97224 13509 ft 351 kts 358°
2026-04-22 13:13 43.87432 125.97357 12967 ft 344 kts 358°
2026-04-22 13:13 43.89761 125.97493 12883 ft 325 kts 358°
2026-04-22 13:13 43.91950 125.97622 12761 ft 302 kts 358°
2026-04-22 13:14 43.93958 125.97744 12627 ft 277 kts 358°
2026-04-22 13:14 43.95806 125.97856 12495 ft 255 kts 357°
2026-04-22 13:14 43.97510 125.97952 12363 ft 236 kts 356°
2026-04-22 13:14 43.99098 125.98038 12128 ft 222 kts 356°
2026-04-22 13:15 44.00631 125.98117 11803 ft 220 kts 356°
2026-04-22 13:15 44.02151 125.98192 11547 ft 218 kts 356°
2026-04-22 13:15 44.03660 125.98314 11268 ft 219 kts
2026-04-22 13:15 44.05109 125.99051 10971 ft 228 kts 25°
2026-04-22 13:16 44.06306 126.00552 10662 ft 237 kts 42°
2026-04-22 13:16 44.07366 126.02293 10471 ft 232 kts 42°
2026-04-22 13:16 44.08396 126.03984 10278 ft 227 kts 42°
2026-04-22 13:16 44.09413 126.05647 10006 ft 225 kts 42°
2026-04-22 13:17 44.10426 126.07298 9714 ft 224 kts 42°
2026-04-22 13:17 44.11438 126.08946 9397 ft 224 kts 43°
2026-04-22 13:17 44.12448 126.10587 9059 ft 223 kts 43°
2026-04-22 13:17 44.13457 126.12229 8743 ft 223 kts 43°
2026-04-22 13:18 44.14575 126.13612 8418 ft 213 kts 20°
2026-04-22 13:18 44.15965 126.14075 8072 ft 203 kts 353°
2026-04-22 13:18 44.17298 126.13566 7706 ft 199 kts 327°
2026-04-22 13:18 44.18382 126.12374 7349 ft 200 kts 318°
2026-04-22 13:19 44.19443 126.11112 7010 ft 201 kts 318°
2026-04-22 13:19 44.20508 126.09850 6698 ft 201 kts 318°
2026-04-22 13:19 44.21562 126.08567 6386 ft 201 kts 311°
2026-04-22 13:19 44.22185 126.06867 6048 ft 200 kts 279°
2026-04-22 13:20 44.22015 126.04961 5704 ft 203 kts 246°
2026-04-22 13:20 44.21104 126.03440 5355 ft 209 kts 225°
2026-04-22 13:20 44.20097 126.01994 5030 ft 207 kts 232°
2026-04-22 13:20 44.19207 126.00422 4722 ft 206 kts 236°
2026-04-22 13:21 44.18319 125.98861 4430 ft 205 kts 233°
2026-04-22 13:21 44.17407 125.97346 4207 ft 201 kts 232°
2026-04-22 13:21 44.16516 125.95891 4072 ft 193 kts 232°
2026-04-22 13:21 44.15657 125.94493 3901 ft 188 kts 232°
2026-04-22 13:22 44.14814 125.93120 3665 ft 186 kts 232°
2026-04-22 13:22 44.13977 125.91758 3415 ft 185 kts 232°
2026-04-22 13:22 44.13427 125.90863 3273 ft 182 kts 232°
2026-04-22 13:22 44.12348 125.89109 3048 ft 177 kts 232°
2026-04-22 13:23 44.11547 125.87808 3004 ft 177 kts 232°
2026-04-22 13:23 44.10744 125.86504 3008 ft 178 kts 232°
2026-04-22 13:23 44.09949 125.85214 3007 ft 178 kts 232°
2026-04-22 13:23 44.09148 125.83914 3004 ft 177 kts 232°
2026-04-22 13:24 44.08347 125.82617 2970 ft 172 kts 232°
2026-04-22 13:24 44.07597 125.81403 2823 ft 161 kts 232°
2026-04-22 13:24 44.06883 125.80246 2634 ft 156 kts 232°
2026-04-22 13:24 44.06204 125.79147 2426 ft 141 kts 233°
2026-04-22 13:25 44.05587 125.78148 2231 ft 133 kts 233°
2026-04-22 13:25 44.04990 125.77182 2062 ft 130 kts 233°
2026-04-22 13:25 44.04405 125.76234 1889 ft 129 kts 233°
2026-04-22 13:25 44.03822 125.75292 1710 ft 129 kts 232°
2026-04-22 13:26 44.03236 125.74342 1505 ft 130 kts 231°
2026-04-22 13:26 44.02642 125.73382 1328 ft 132 kts 230°
2026-04-22 13:26 44.02245 125.72736 1208 ft 133 kts 230°
2026-04-22 13:26 44.01642 125.71761 1041 ft 133 kts 229°
2026-04-22 13:27 44.01041 125.70790 885 ft 132 kts 229°
2026-04-22 13:27 44.00444 125.69822 755 ft 132 kts 230°
2026-04-22 13:27 43.99897 125.68935 718 ft 101 kts 229°
2026-04-22 13:27 43.99551 125.68382 721 ft 51 kts 229°
2026-04-22 13:28 43.99398 125.68134 721 ft 30 kts 228°
2026-04-22 13:28 43.99272 125.68010 716 ft 16 kts 200°
2026-04-22 13:28 43.99219 125.67982 716 ft 10 kts 200°
2026-04-22 13:28 43.99143 125.67955 715 ft 13 kts 171°
2026-04-22 13:29 43.99132 125.68061 717 ft 15 kts 51°
2026-04-22 13:29 43.99179 125.68139 716 ft 12 kts 48°
2026-04-22 13:29 43.99241 125.68237 715 ft 15 kts 49°
2026-04-22 13:29 43.99319 125.68361 717 ft 19 kts 49°
2026-04-22 13:30 43.99377 125.68468 714 ft 7 kts 84°
2026-04-22 13:30 43.99346 125.68535 714 ft 10 kts 139°
2026-04-22 13:30 43.99297 125.68612 715 ft 11 kts 101°
2026-04-22 13:30 43.99258 125.68687 717 ft 5 kts 139°
2026-04-22 13:31 43.99228 125.68723 716 ft 0 kts 139°
2026-04-22 13:31 43.99226 125.68725 715 ft 1 kts 139°
2026-04-22 13:31 43.99225 125.68726 715 ft 0 kts 139°